QPF
0.00 0.00 0.00 0.00 0.01 0.01 0.00 0.01 0.00 0.01 0.02 0.03 0.02 0.02 0.02 0.01 0.01 0.01 0.01 0.01 0.01 0.01 0.01 0.01 0.02 0.01 0.00 0.00 0.00 0.00 0.00 0.00 0.00 0.00 0.00 0.00 0.00 0.00 0.00 0.01 0.00 0.01 0.01 0.01 0.01 0.01 0.01 0.01 0.02
0.00 0.00 0.00 0.01 0.01 0.00 0.00 0.00 0.00 0.01 0.02 0.03 0.03 0.02 0.01 0.01 0.01 0.01 0.02 0.02 0.02 0.02 0.02 0.01 0.01 0.01 0.00 0.00 0.00 0.00 0.00 0.00 0.00 0.00 0.00 0.00 0.00 0.00 0.01 0.01 0.01 0.01 0.01 0.01 0.01 0.01 0.01 0.01 0.02
0.00 0.00 0.00 0.01 0.00 0.00 0.00 0.00 0.00 0.01 0.02 0.02 0.02 0.01 0.01 0.01 0.01 0.02 0.04 0.02 0.01 0.01 0.01 0.01 0.01 0.01 0.00 0.00 0.00 0.00 0.00 0.00 0.00 0.00 0.00 0.00 0.00 0.00 0.01 0.01 0.01 0.01 0.01 0.01 0.01 0.00 0.01 0.01 0.01
0.00 0.00 0.01 0.01 0.00 0.00 0.00 0.00 0.00 0.01 0.02 0.02 0.01 0.01 0.02 0.01 0.01 0.02 0.03 0.02 0.01 0.00 0.00 0.00 0.01 0.00 0.00 0.00 0.00 0.00 0.00 0.00 0.00 0.00 0.00 0.00 0.00 0.01 0.01 0.00 0.01 0.01 0.01 0.01 0.01 0.00 0.01 0.01 0.01
0.00 0.00 0.00 0.00 0.00 0.00 0.00 0.00 0.00 0.01 0.01 0.01 0.01 0.01 0.01 0.01 0.01 0.02 0.02 0.01 0.00 0.00 0.00 0.00 0.01 0.00 0.00 0.00 0.00 0.00 0.00 0.00 0.00 0.00 0.00 0.00 0.01 0.01 0.01 0.01 0.01 0.01 0.01 0.01 0.01 0.01 0.01 0.01 0.01
0.00 0.00 0.00 0.00 0.00 0.00 0.00 0.00 0.00 0.00 0.00 0.00 0.00 0.00 0.01 0.02 0.02 0.01 0.02 0.00 0.00 0.00 0.00 0.00 0.01 0.01 0.00 0.00 0.00 0.00 0.00 0.00 0.00 0.00 0.00 0.00 0.00 0.01 0.01 0.01 0.01 0.00 0.00 0.00 0.01 0.01 0.01 0.01 0.02
0.00 0.00 0.00 0.00 0.00 0.00 0.00 0.00 0.00 0.00 0.00 0.00 0.00 0.00 0.01 0.02 0.03 0.02 0.02 0.02 0.03 0.03 0.02 0.01 0.01 0.01 0.00 0.00 0.00 0.00 0.00 0.00 0.01 0.01 0.00 0.00 0.01 0.01 0.01 0.01 0.01 0.01 0.01 0.01 0.01 0.01 0.01 0.01 0.01
0.00 0.00 0.00 0.00 0.00 0.00 0.00 0.00 0.00 0.00 0.00 0.00 0.00 0.00 0.01 0.02 0.03 0.03 0.03 0.05 0.07 0.13 0.08 0.03 0.01 0.01 0.00 0.00 0.00 0.00 0.00 0.01 0.00 0.00 0.01 0.01 0.02 0.01 0.01 0.01 0.01 0.01 0.01 0.01 0.01 0.01 0.01 0.01 0.01
0.00 0.00 0.00 0.00 0.00 0.00 0.00 0.00 0.00 0.00 0.00 0.00 0.00 0.00 0.00 0.01 0.04 0.05 0.06 0.06 0.06 0.09 0.09 0.06 0.03 0.02 0.01 0.00 0.01 0.01 0.01 0.01 0.01 0.01 0.02 0.02 0.01 0.01 0.01 0.01 0.01 0.01 0.01 0.01 0.01 0.01 0.01 0.01 0.02
0.00 0.00 0.00 0.00 0.00 0.00 0.00 0.00 0.00 0.00 0.00 0.00 0.00 0.00 0.00 0.02 0.05 0.05 0.06 0.04 0.04 0.04 0.03 0.04 0.03 0.02 0.01 0.01 0.01 0.01 0.01 0.00 0.00 0.01 0.02 0.02 0.01 0.01 0.01 0.02 0.04 0.04 0.02 0.02 0.02 0.02 0.02 0.01 0.01
0.00 0.00 0.00 0.00 0.00 0.00 0.00 0.00 0.00 0.00 0.00 0.00 0.00 0.00 0.01 0.03 0.06 0.08 0.10 0.07 0.04 0.04 0.03 0.03 0.04 0.03 0.01 0.01 0.01 0.00 0.00 0.00 0.00 0.01 0.01 0.01 0.01 0.01 0.02 0.03 0.04 0.04 0.02 0.01 0.01 0.01 0.01 0.01 0.01
0.00 0.00 0.00 0.00 0.00 0.00 0.00 0.00 0.00 0.00 0.00 0.00 0.00 0.01 0.04 0.07 0.10 0.11 0.12 0.12 0.10 0.08 0.06 0.06 0.06 0.05 0.03 0.02 0.01 0.01 0.00 0.00 0.00 0.01 0.01 0.02 0.01 0.01 0.01 0.02 0.03 0.02 0.01 0.00 0.00 0.01 0.01 0.01 0.01
0.00 0.00 0.00 0.00 0.00 0.00 0.00 0.00 0.00 0.00 0.00 0.00 0.00 0.01 0.04 0.09 0.18 0.18 0.18 0.20 0.21 0.19 0.16 0.12 0.08 0.07 0.05 0.05 0.03 0.01 0.01 0.01 0.01 0.01 0.02 0.03 0.02 0.01 0.01 0.01 0.01 0.00 0.00 0.01 0.02 0.02 0.01 0.00 0.00
0.00 0.00 0.00 0.00 0.00 0.00 0.00 0.00 0.00 0.00 0.00 0.00 0.01 0.02 0.03 0.09 0.19 0.28 0.25 0.28 0.28 0.31 0.35 0.26 0.17 0.12 0.09 0.06 0.04 0.02 0.02 0.02 0.01 0.01 0.02 0.02 0.02 0.01 0.02 0.01 0.01 0.00 0.00 0.01 0.01 0.01 0.01 0.00 0.00
0.00 0.00 0.00 0.00 0.00 0.00 0.00 0.00 0.00 0.01 0.01 0.01 0.01 0.03 0.04 0.08 0.13 0.23 0.30 0.37 0.36 0.40 0.40 0.30 0.21 0.18 0.14 0.10 0.07 0.04 0.03 0.02 0.02 0.02 0.02 0.01 0.01 0.01 0.02 0.01 0.01 0.01 0.01 0.01 0.01 0.01 0.01 0.01 0.01
0.00 0.00 0.00 0.00 0.00 0.00 0.00 0.00 0.00 0.01 0.01 0.01 0.02 0.05 0.07 0.08 0.13 0.22 0.28 0.33 0.41 0.44 0.38 0.31 0.19 0.22 0.17 0.15 0.11 0.07 0.05 0.04 0.03 0.02 0.03 0.02 0.02 0.02 0.02 0.01 0.01 0.00 0.00 0.00 0.00 0.01 0.01 0.01 0.01
0.00 0.00 0.00 0.00 0.00 0.00 0.00 0.00 0.00 0.01 0.01 0.02 0.05 0.07 0.06 0.09 0.14 0.20 0.24 0.23 0.31 0.33 0.34 0.29 0.20 0.20 0.17 0.18 0.15 0.11 0.07 0.06 0.05 0.04 0.04 0.03 0.02 0.02 0.01 0.02 0.01 0.00 0.01 0.00 0.00 0.01 0.01 0.00 0.00
0.00 0.00 0.00 0.00 0.00 0.00 0.00 0.00 0.01 0.01 0.01 0.03 0.04 0.04 0.04 0.06 0.11 0.19 0.24 0.21 0.20 0.25 0.27 0.22 0.18 0.18 0.20 0.21 0.16 0.11 0.09 0.08 0.06 0.05 0.04 0.03 0.02 0.02 0.01 0.01 0.01 0.00 0.00 0.00 0.00 0.01 0.00 0.00 0.00
0.00 0.00 0.00 0.00 0.00 0.00 0.00 0.01 0.01 0.01 0.01 0.03 0.03 0.02 0.03 0.05 0.08 0.19 0.28 0.23 0.24 0.24 0.26 0.24 0.22 0.20 0.18 0.15 0.10 0.08 0.06 0.06 0.06 0.06 0.04 0.04 0.03 0.01 0.01 0.01 0.00 0.00 0.00 0.00 0.00 0.00 0.00 0.00 0.00
0.00 0.00 0.00 0.00 0.00 0.00 0.00 0.00 0.01 0.01 0.02 0.01 0.01 0.02 0.03 0.04 0.06 0.10 0.19 0.21 0.22 0.22 0.27 0.25 0.26 0.22 0.17 0.13 0.11 0.12 0.10 0.07 0.06 0.04 0.03 0.03 0.02 0.01 0.01 0.00 0.00 0.00 0.00 0.00 0.00 0.00 0.00 0.00 0.00
0.00 0.00 0.00 0.00 0.00 0.00 0.00 0.00 0.00 0.01 0.02 0.02 0.01 0.02 0.04 0.05 0.05 0.07 0.08 0.13 0.17 0.20 0.19 0.21 0.25 0.25 0.19 0.15 0.14 0.11 0.07 0.04 0.03 0.02 0.01 0.01 0.01 0.01 0.01 0.00 0.00 0.00 0.00 0.00 0.00 0.00 0.00 0.00 0.00
0.00 0.00 0.00 0.00 0.00 0.00 0.00 0.00 0.00 0.00 0.01 0.02 0.01 0.02 0.03 0.05 0.03 0.04 0.03 0.06 0.12 0.14 0.14 0.17 0.20 0.23 0.22 0.15 0.11 0.06 0.03 0.03 0.02 0.02 0.01 0.01 0.01 0.01 0.01 0.01 0.00 0.00 0.00 0.00 0.00 0.00 0.00 0.00 0.00
0.00 0.00 0.00 0.00 0.00 0.00 0.00 0.00 0.00 0.00 0.00 0.01 0.01 0.01 0.01 0.02 0.03 0.03 0.02 0.03 0.05 0.07 0.08 0.14 0.17 0.18 0.18 0.14 0.10 0.06 0.04 0.03 0.02 0.01 0.01 0.01 0.00 0.00 0.00 0.00 0.00 0.00 0.00 0.00 0.00 0.00 0.00 0.00 0.00
0.00 0.00 0.00 0.00 0.00 0.00 0.00 0.00 0.00 0.00 0.00 0.00 0.00 0.00 0.01 0.02 0.03 0.04 0.04 0.05 0.04 0.05 0.07 0.11 0.13 0.12 0.13 0.11 0.08 0.06 0.04 0.02 0.01 0.02 0.02 0.01 0.01 0.00 0.00 0.00 0.00 0.00 0.00 0.00 0.00 0.00 0.00 0.00 0.00
0.00 0.00 0.00 0.00 0.00 0.00 0.00 0.00 0.00 0.00 0.00 0.00 0.00 0.00 0.00 0.01 0.02 0.03 0.03 0.03 0.04 0.05 0.05 0.08 0.09 0.08 0.08 0.08 0.06 0.05 0.03 0.02 0.02 0.02 0.01 0.01 0.00 0.00 0.00 0.00 0.00 0.00 0.00 0.00 0.00 0.00 0.00 0.00 0.00
0.00 0.00 0.01 0.00 0.00 0.00 0.00 0.00 0.00 0.00 0.00 0.00 0.00 0.00 0.00 0.00 0.01 0.01 0.01 0.01 0.02 0.04 0.04 0.04 0.06 0.06 0.06 0.06 0.06 0.05 0.03 0.02 0.02 0.01 0.01 0.00 0.00 0.00 0.00 0.00 0.00 0.00 0.00 0.00 0.00 0.00 0.00 0.00 0.00
0.00 0.00 0.00 0.00 0.00 0.00 0.00 0.00 0.00 0.00 0.00 0.00 0.00 0.00 0.00 0.00 0.01 0.01 0.01 0.01 0.01 0.02 0.02 0.02 0.03 0.04 0.04 0.05 0.05 0.04 0.02 0.02 0.02 0.02 0.02 0.01 0.01 0.00 0.00 0.00 0.00 0.00 0.00 0.00 0.00 0.00 0.00 0.00 0.00
0.00 0.00 0.00 0.00 0.00 0.00 0.00 0.00 0.00 0.00 0.00 0.00 0.00 0.00 0.00 0.01 0.01 0.01 0.01 0.00 0.01 0.01 0.01 0.02 0.02 0.01 0.04 0.04 0.03 0.03 0.03 0.03 0.02 0.02 0.02 0.01 0.01 0.01 0.01 0.01 0.00 0.00 0.00 0.00 0.00 0.00 0.00 0.00 0.00
0.00 0.00 0.01 0.00 0.00 0.00 0.00 0.00 0.00 0.00 0.00 0.00 0.00 0.00 0.00 0.01 0.01 0.01 0.01 0.00 0.00 0.01 0.01 0.02 0.01 0.01 0.02 0.03 0.03 0.02 0.02 0.02 0.02 0.01 0.02 0.02 0.01 0.01 0.01 0.01 0.01 0.00 0.01 0.01 0.01 0.00 0.01 0.01 0.01
0.00 0.00 0.00 0.00 0.01 0.01 0.00 0.00 0.00 0.00 0.00 0.00 0.00 0.00 0.02 0.01 0.02 0.02 0.01 0.00 0.00 0.01 0.01 0.01 0.01 0.01 0.01 0.02 0.02 0.02 0.02 0.02 0.02 0.02 0.03 0.02 0.01 0.01 0.01 0.00 0.01 0.01 0.01 0.01 0.01 0.00 0.00 0.00 0.01
MSLP
1009.62 1010.57 1011.58 1012.47 1013.10 1013.38 1013.32 1012.96 1012.45 1011.92 1011.50 1011.26 1011.22 1011.32 1011.48 1011.59 1011.59 1011.44 1011.16 1010.82 1010.52 1010.34 1010.34 1010.56 1010.96 1011.48 1012.04 1012.54 1012.95 1013.23 1013.40 1013.49 1013.57 1013.67 1013.83 1014.05 1014.31 1014.58 1014.83 1015.03 1015.18 1015.26 1015.31 1015.32 1015.34 1015.35 1015.38 1015.41 1015.46
1009.96 1011.04 1012.10 1012.96 1013.48 1013.58 1013.29 1012.71 1011.97 1011.24 1010.66 1010.32 1010.20 1010.27 1010.43 1010.58 1010.63 1010.55 1010.36 1010.13 1009.94 1009.88 1010.01 1010.33 1010.84 1011.43 1012.05 1012.61 1013.06 1013.39 1013.61 1013.76 1013.89 1014.03 1014.21 1014.43 1014.67 1014.90 1015.10 1015.24 1015.33 1015.37 1015.38 1015.39 1015.41 1015.43 1015.47 1015.52 1015.57
1010.44 1011.60 1012.66 1013.44 1013.81 1013.72 1013.22 1012.43 1011.50 1010.63 1009.95 1009.53 1009.37 1009.43 1009.60 1009.77 1009.86 1009.83 1009.72 1009.58 1009.50 1009.55 1009.78 1010.20 1010.77 1011.43 1012.09 1012.69 1013.17 1013.54 1013.80 1013.99 1014.16 1014.34 1014.54 1014.76 1014.98 1015.18 1015.33 1015.42 1015.46 1015.47 1015.47 1015.48 1015.50 1015.55 1015.60 1015.66 1015.72
1011.06 1012.24 1013.24 1013.89 1014.09 1013.81 1013.12 1012.16 1011.11 1010.16 1009.42 1008.98 1008.83 1008.89 1009.07 1009.25 1009.37 1009.39 1009.33 1009.27 1009.26 1009.40 1009.71 1010.19 1010.81 1011.50 1012.17 1012.78 1013.27 1013.65 1013.93 1014.15 1014.36 1014.56 1014.79 1015.01 1015.22 1015.40 1015.52 1015.58 1015.60 1015.61 1015.61 1015.63 1015.67 1015.74 1015.81 1015.89 1015.96
1011.76 1012.89 1013.77 1014.25 1014.25 1013.79 1012.95 1011.89 1010.79 1009.82 1009.10 1008.69 1008.57 1008.65 1008.84 1009.04 1009.17 1009.22 1009.20 1009.18 1009.24 1009.44 1009.80 1010.32 1010.96 1011.64 1012.30 1012.88 1013.35 1013.72 1014.01 1014.25 1014.47 1014.71 1014.95 1015.19 1015.41 1015.58 1015.69 1015.75 1015.78 1015.79 1015.81 1015.85 1015.92 1016.01 1016.11 1016.20 1016.28
1012.44 1013.45 1014.15 1014.43 1014.24 1013.62 1012.67 1011.57 1010.47 1009.56 1008.91 1008.58 1008.51 1008.64 1008.85 1009.05 1009.19 1009.24 1009.26 1009.28 1009.39 1009.63 1010.02 1010.56 1011.18 1011.84 1012.45 1012.99 1013.42 1013.76 1014.04 1014.28 1014.53 1014.79 1015.07 1015.33 1015.56 1015.74 1015.87 1015.94 1015.98 1016.02 1016.07 1016.14 1016.23 1016.34 1016.45 1016.55 1016.64
1013.00 1013.83 1014.31 1014.36 1013.98 1013.22 1012.21 1011.12 1010.09 1009.27 1008.74 1008.50 1008.51 1008.68 1008.91 1009.13 1009.27 1009.34 1009.38 1009.44 1009.60 1009.88 1010.30 1010.84 1011.45 1012.06 1012.62 1013.09 1013.48 1013.79 1014.05 1014.30 1014.57 1014.86 1015.17 1015.46 1015.72 1015.92 1016.06 1016.16 1016.22 1016.28 1016.35 1016.44 1016.55 1016.67 1016.79 1016.89 1016.97
1013.34 1013.94 1014.18 1014.01 1013.44 1012.58 1011.54 1010.48 1009.55 1008.86 1008.46 1008.33 1008.41 1008.63 1008.88 1009.10 1009.26 1009.36 1009.44 1009.56 1009.77 1010.10 1010.56 1011.11 1011.70 1012.27 1012.78 1013.20 1013.54 1013.82 1014.08 1014.34 1014.63 1014.96 1015.30 1015.62 1015.91 1016.13 1016.29 1016.39 1016.47 1016.53 1016.61 1016.71 1016.83 1016.95 1017.06 1017.15 1017.23
1013.40 1013.77 1013.75 1013.36 1012.64 1011.70 1010.66 1009.67 1008.85 1008.29 1008.00 1007.96 1008.11 1008.37 1008.64 1008.88 1009.06 1009.20 1009.35 1009.55 1009.84 1010.24 1010.75 1011.32 1011.90 1012.45 1012.92 1013.30 1013.61 1013.88 1014.14 1014.42 1014.75 1015.11 1015.48 1015.84 1016.14 1016.38 1016.54 1016.64 1016.70 1016.76 1016.83 1016.92 1017.02 1017.13 1017.24 1017.32 1017.39
1013.20 1013.33 1013.08 1012.51 1011.67 1010.67 1009.65 1008.74 1008.02 1007.56 1007.37 1007.40 1007.60 1007.87 1008.16 1008.42 1008.65 1008.86 1009.09 1009.39 1009.78 1010.27 1010.84 1011.45 1012.05 1012.58 1013.04 1013.40 1013.70 1013.96 1014.24 1014.55 1014.91 1015.31 1015.72 1016.10 1016.42 1016.65 1016.80 1016.88 1016.92 1016.95 1016.99 1017.06 1017.14 1017.24 1017.34 1017.42 1017.48
1012.80 1012.72 1012.29 1011.57 1010.65 1009.63 1008.65 1007.80 1007.17 1006.79 1006.66 1006.73 1006.94 1007.22 1007.52 1007.81 1008.08 1008.37 1008.71 1009.12 1009.62 1010.21 1010.86 1011.52 1012.13 1012.68 1013.12 1013.48 1013.78 1014.07 1014.37 1014.71 1015.11 1015.55 1015.98 1016.38 1016.70 1016.93 1017.06 1017.11 1017.12 1017.11 1017.12 1017.16 1017.22 1017.31 1017.40 1017.48 1017.56
1012.34 1012.09 1011.53 1010.71 1009.75 1008.75 1007.81 1007.03 1006.46 1006.13 1006.02 1006.09 1006.29 1006.55 1006.85 1007.17 1007.50 1007.87 1008.31 1008.83 1009.44 1010.12 1010.83 1011.54 1012.18 1012.73 1013.19 1013.56 1013.87 1014.17 1014.50 1014.88 1015.32 1015.78 1016.23 1016.64 1016.97 1017.19 1017.30 1017.33 1017.31 1017.27 1017.25 1017.26 1017.31 1017.39 1017.49 1017.59 1017.68
1011.95 1011.58 1010.94 1010.09 1009.13 1008.16 1007.28 1006.56 1006.03 1005.72 1005.60 1005.64 1005.81 1006.04 1006.33 1006.66 1007.04 1007.49 1008.01 1008.62 1009.31 1010.05 1010.81 1011.54 1012.20 1012.76 1013.23 1013.61 1013.95 1014.28 1014.63 1015.04 1015.49 1015.97 1016.44 1016.85 1017.18 1017.40 1017.51 1017.52 1017.49 1017.44 1017.41 1017.41 1017.47 1017.55 1017.67 1017.78 1017.90
1011.74 1011.31 1010.64 1009.80 1008.89 1007.99 1007.18 1006.51 1006.01 1005.69 1005.55 1005.54 1005.65 1005.85 1006.12 1006.45 1006.85 1007.34 1007.91 1008.56 1009.28 1010.05 1010.81 1011.54 1012.20 1012.77 1013.25 1013.65 1014.01 1014.37 1014.74 1015.17 1015.63 1016.11 1016.58 1016.99 1017.32 1017.55 1017.67 1017.70 1017.68 1017.65 1017.63 1017.65 1017.71 1017.82 1017.95 1018.10 1018.23
1011.77 1011.32 1010.66 1009.88 1009.05 1008.24 1007.50 1006.88 1006.40 1006.08 1005.89 1005.84 1005.89 1006.04 1006.27 1006.58 1006.98 1007.47 1008.04 1008.68 1009.38 1010.11 1010.85 1011.55 1012.19 1012.75 1013.24 1013.67 1014.07 1014.45 1014.85 1015.28 1015.74 1016.21 1016.66 1017.07 1017.40 1017.65 1017.80 1017.87 1017.89 1017.89 1017.91 1017.95 1018.04 1018.17 1018.33 1018.50 1018.66
1012.00 1011.55 1010.95 1010.26 1009.53 1008.83 1008.18 1007.62 1007.17 1006.82 1006.60 1006.48 1006.48 1006.57 1006.76 1007.04 1007.40 1007.85 1008.36 1008.94 1009.56 1010.22 1010.88 1011.52 1012.13 1012.70 1013.21 1013.69 1014.12 1014.55 1014.97 1015.40 1015.85 1016.29 1016.72 1017.11 1017.45 1017.71 1017.90 1018.03 1018.11 1018.17 1018.23 1018.31 1018.43 1018.59 1018.77 1018.96 1019.14
1012.33 1011.91 1011.39 1010.81 1010.22 1009.64 1009.09 1008.60 1008.16 1007.81 1007.54 1007.37 1007.31 1007.35 1007.48 1007.71 1008.01 1008.38 1008.80 1009.27 1009.77 1010.31 1010.87 1011.44 1012.03 1012.60 1013.16 1013.69 1014.20 1014.68 1015.13 1015.57 1015.99 1016.41 1016.80 1017.16 1017.48 1017.76 1017.99 1018.18 1018.32 1018.45 1018.56 1018.69 1018.83 1019.00 1019.19 1019.39 1019.58
1012.62 1012.26 1011.85 1011.41 1010.97 1010.53 1010.09 1009.65 1009.24 1008.87 1008.57 1008.34 1008.22 1008.21 1008.29 1008.45 1008.67 1008.94 1009.24 1009.57 1009.93 1010.33 1010.78 1011.29 1011.85 1012.45 1013.07 1013.69 1014.28 1014.84 1015.34 1015.79 1016.20 1016.57 1016.91 1017.23 1017.54 1017.82 1018.09 1018.32 1018.53 1018.71 1018.87 1019.03 1019.20 1019.37 1019.56 1019.76 1019.96
1012.74 1012.48 1012.21 1011.94 1011.67 1011.37 1011.03 1010.66 1010.26 1009.87 1009.52 1009.24 1009.06 1008.99 1009.01 1009.11 1009.25 1009.42 1009.59 1009.78 1009.99 1010.26 1010.60 1011.05 1011.60 1012.24 1012.94 1013.67 1014.38 1015.02 1015.59 1016.07 1016.46 1016.79 1017.08 1017.35 1017.63 1017.90 1018.18 1018.45 1018.71 1018.94 1019.14 1019.32 1019.49 1019.66 1019.84 1020.04 1020.23
1012.63 1012.50 1012.41 1012.34 1012.25 1012.09 1011.86 1011.53 1011.13 1010.69 1010.28 1009.93 1009.69 1009.56 1009.53 1009.58 1009.66 1009.74 1009.81 1009.87 1009.95 1010.10 1010.35 1010.75 1011.30 1012.00 1012.79 1013.63 1014.46 1015.21 1015.85 1016.35 1016.74 1017.03 1017.27 1017.50 1017.73 1017.99 1018.27 1018.57 1018.86 1019.12 1019.35 1019.54 1019.71 1019.87 1020.03 1020.21 1020.41
1012.29 1012.34 1012.46 1012.60 1012.70 1012.69 1012.53 1012.23 1011.79 1011.29 1010.79 1010.35 1010.04 1009.86 1009.79 1009.80 1009.84 1009.88 1009.88 1009.86 1009.85 1009.91 1010.10 1010.45 1011.02 1011.76 1012.63 1013.57 1014.50 1015.35 1016.05 1016.60 1016.98 1017.25 1017.45 1017.63 1017.83 1018.06 1018.35 1018.66 1018.97 1019.25 1019.50 1019.70 1019.86 1020.00 1020.14 1020.31 1020.51
1011.80 1012.07 1012.43 1012.80 1013.08 1013.19 1013.10 1012.77 1012.27 1011.66 1011.04 1010.51 1010.11 1009.87 1009.78 1009.79 1009.84 1009.87 1009.86 1009.81 1009.76 1009.77 1009.91 1010.24 1010.79 1011.56 1012.48 1013.49 1014.49 1015.40 1016.16 1016.74 1017.13 1017.38 1017.55 1017.70 1017.87 1018.09 1018.38 1018.70 1019.03 1019.33 1019.59 1019.80 1019.95 1020.08 1020.20 1020.36 1020.55
1011.29 1011.80 1012.41 1013.00 1013.45 1013.66 1013.58 1013.21 1012.60 1011.85 1011.10 1010.43 1009.94 1009.66 1009.56 1009.60 1009.70 1009.78 1009.82 1009.79 1009.75 1009.75 1009.86 1010.16 1010.69 1011.44 1012.37 1013.40 1014.43 1015.37 1016.15 1016.73 1017.13 1017.38 1017.54 1017.67 1017.83 1018.06 1018.35 1018.69 1019.04 1019.37 1019.64 1019.86 1020.01 1020.13 1020.24 1020.38 1020.57
1010.89 1011.64 1012.48 1013.27 1013.85 1014.12 1014.02 1013.56 1012.81 1011.90 1010.98 1010.19 1009.61 1009.29 1009.21 1009.30 1009.49 1009.68 1009.82 1009.87 1009.88 1009.90 1010.01 1010.27 1010.76 1011.46 1012.34 1013.32 1014.32 1015.23 1016.00 1016.58 1016.98 1017.22 1017.38 1017.52 1017.69 1017.93 1018.25 1018.61 1018.99 1019.35 1019.65 1019.87 1020.03 1020.15 1020.26 1020.39 1020.57
1010.66 1011.63 1012.67 1013.60 1014.27 1014.56 1014.40 1013.82 1012.92 1011.83 1010.75 1009.82 1009.17 1008.82 1008.78 1008.96 1009.28 1009.61 1009.88 1010.06 1010.16 1010.23 1010.34 1010.57 1010.99 1011.60 1012.39 1013.28 1014.19 1015.04 1015.76 1016.31 1016.69 1016.93 1017.11 1017.26 1017.46 1017.73 1018.07 1018.47 1018.89 1019.28 1019.60 1019.85 1020.02 1020.15 1020.25 1020.38 1020.55
1010.61 1011.75 1012.92 1013.95 1014.65 1014.90 1014.65 1013.94 1012.88 1011.64 1010.41 1009.38 1008.66 1008.32 1008.33 1008.61 1009.07 1009.56 1010.00 1010.32 1010.53 1010.67 1010.80 1011.01 1011.35 1011.86 1012.52 1013.28 1014.07 1014.82 1015.46 1015.96 1016.32 1016.56 1016.74 1016.93 1017.15 1017.46 1017.84 1018.27 1018.72 1019.14 1019.49 1019.77 1019.96 1020.09 1020.20 1020.33 1020.49
1010.70 1011.92 1013.15 1014.20 1014.87 1015.06 1014.71 1013.87 1012.68 1011.31 1009.98 1008.88 1008.13 1007.80 1007.87 1008.27 1008.86 1009.51 1010.11 1010.58 1010.91 1011.13 1011.30 1011.48 1011.76 1012.16 1012.69 1013.32 1013.97 1014.61 1015.16 1015.59 1015.91 1016.15 1016.34 1016.55 1016.80 1017.14 1017.55 1018.01 1018.48 1018.93 1019.31 1019.61 1019.82 1019.97 1020.10 1020.22 1020.38
1010.81 1012.04 1013.25 1014.24 1014.84 1014.93 1014.48 1013.55 1012.27 1010.83 1009.46 1008.34 1007.60 1007.31 1007.45 1007.93 1008.64 1009.42 1010.15 1010.75 1011.19 1011.49 1011.69 1011.88 1012.11 1012.43 1012.85 1013.35 1013.89 1014.41 1014.87 1015.24 1015.53 1015.75 1015.95 1016.16 1016.44 1016.78 1017.21 1017.68 1018.17 1018.63 1019.03 1019.35 1019.59 1019.76 1019.90 1020.04 1020.20
1010.84 1012.00 1013.11 1013.99 1014.47 1014.46 1013.94 1012.95 1011.65 1010.22 1008.88 1007.80 1007.11 1006.87 1007.07 1007.61 1008.39 1009.24 1010.05 1010.74 1011.25 1011.62 1011.87 1012.07 1012.29 1012.57 1012.92 1013.34 1013.78 1014.22 1014.61 1014.93 1015.18 1015.38 1015.56 1015.78 1016.05 1016.40 1016.82 1017.30 1017.78 1018.25 1018.66 1018.99 1019.25 1019.45 1019.60 1019.75 1019.92
1010.75 1011.77 1012.71 1013.43 1013.78 1013.67 1013.10 1012.13 1010.88 1009.54 1008.29 1007.31 1006.71 1006.54 1006.78 1007.34 1008.13 1008.99 1009.81 1010.51 1011.06 1011.46 1011.75 1011.99 1012.22 1012.49 1012.83 1013.21 1013.61 1014.00 1014.34 1014.62 1014.84 1015.02 1015.19 1015.39 1015.65 1015.98 1016.38 1016.84 1017.31 1017.77 1018.18 1018.52 1018.80 1019.02 1019.19 1019.36 1019.54
Thickness
5803 5800 5796 5785 5766 5750 5750 5764 5774 5776 5779 5789 5791 5786 5778 5772 5765 5763 5783 5792 5790 5784 5779 5776 5773 5771 5770 5768 5767 5765 5764 5763 5762 5762 5760 5759 5758 5757 5756 5755 5753 5752 5751 5750 5749 5748 5747 5746 5745
5803 5799 5788 5774 5754 5739 5750 5771 5775 5781 5789 5793 5791 5787 5779 5776 5783 5781 5784 5788 5787 5782 5778 5775 5772 5770 5768 5767 5765 5764 5762 5761 5760 5759 5758 5757 5756 5754 5753 5752 5751 5750 5749 5747 5746 5745 5744 5743 5743
5803 5798 5777 5762 5751 5745 5758 5778 5782 5789 5795 5792 5786 5786 5781 5778 5783 5783 5787 5788 5784 5779 5776 5773 5771 5768 5766 5765 5763 5762 5760 5759 5757 5756 5755 5754 5753 5752 5750 5749 5748 5747 5746 5745 5744 5743 5742 5741 5740
5799 5785 5772 5755 5752 5763 5775 5786 5790 5786 5790 5792 5786 5779 5784 5791 5789 5789 5789 5786 5780 5776 5774 5772 5769 5766 5764 5762 5761 5760 5758 5757 5755 5754 5753 5752 5750 5749 5748 5746 5745 5744 5743 5742 5741 5740 5739 5739 5738
5793 5774 5758 5746 5754 5773 5788 5794 5794 5785 5785 5788 5785 5775 5777 5788 5793 5790 5787 5784 5778 5774 5771 5769 5767 5764 5762 5760 5759 5758 5756 5755 5753 5752 5750 5749 5748 5746 5745 5743 5742 5742 5741 5740 5738 5737 5737 5737 5736
5777 5765 5745 5741 5757 5779 5792 5800 5795 5788 5786 5787 5783 5774 5774 5784 5785 5784 5783 5779 5776 5772 5768 5766 5763 5761 5759 5757 5756 5755 5754 5753 5751 5750 5748 5747 5745 5744 5742 5741 5740 5739 5738 5737 5736 5735 5734 5734 5734
5771 5757 5748 5752 5759 5774 5792 5802 5794 5786 5783 5786 5788 5772 5772 5778 5782 5782 5779 5775 5770 5767 5765 5762 5760 5758 5756 5755 5754 5753 5752 5751 5749 5748 5746 5745 5743 5741 5739 5738 5737 5736 5735 5734 5734 5733 5732 5732 5731
5781 5760 5753 5752 5760 5774 5796 5800 5800 5792 5787 5797 5791 5773 5769 5777 5780 5777 5772 5768 5764 5761 5760 5759 5757 5755 5753 5752 5751 5750 5749 5748 5747 5745 5744 5742 5740 5739 5737 5735 5734 5733 5732 5732 5732 5731 5730 5730 5729
5785 5754 5745 5757 5766 5779 5795 5794 5799 5803 5795 5793 5793 5788 5787 5784 5777 5769 5764 5760 5758 5756 5755 5755 5753 5752 5750 5749 5748 5747 5746 5745 5744 5743 5741 5740 5738 5736 5735 5733 5732 5731 5730 5730 5730 5729 5728 5728 5728
5773 5750 5760 5778 5785 5789 5795 5794 5795 5792 5786 5784 5786 5788 5787 5780 5772 5765 5760 5756 5754 5752 5751 5751 5750 5749 5747 5746 5745 5744 5743 5742 5741 5740 5739 5737 5735 5734 5732 5731 5730 5729 5728 5728 5728 5727 5726 5726 5726
5774 5766 5780 5790 5797 5797 5795 5795 5799 5787 5778 5785 5785 5783 5780 5774 5767 5763 5759 5757 5754 5751 5748 5747 5747 5745 5744 5743 5742 5741 5740 5739 5738 5737 5736 5735 5733 5731 5730 5729 5728 5727 5726 5726 5726 5725 5724 5724 5723
5777 5782 5790 5797 5804 5800 5797 5797 5793 5790 5792 5802 5799 5791 5780 5771 5765 5761 5756 5752 5749 5746 5745 5744 5743 5742 5741 5740 5740 5738 5737 5736 5735 5734 5733 5732 5730 5729 5728 5727 5725 5725 5724 5724 5723 5723 5723 5722 5722
5780 5786 5796 5802 5803 5802 5801 5796 5793 5792 5800 5802 5797 5786 5778 5771 5764 5758 5752 5748 5744 5740 5740 5740 5739 5738 5737 5737 5736 5736 5735 5734 5733 5732 5731 5730 5728 5727 5726 5724 5723 5723 5722 5722 5721 5721 5721 5720 5720
5787 5790 5794 5799 5802 5804 5798 5795 5792 5792 5798 5793 5786 5779 5775 5768 5761 5753 5747 5742 5739 5737 5736 5736 5736 5735 5734 5733 5733 5733 5733 5732 5731 5730 5729 5728 5727 5726 5724 5722 5721 5721 5720 5720 5719 5719 5719 5718 5718
5789 5783 5787 5796 5799 5800 5796 5783 5787 5794 5793 5785 5779 5774 5769 5764 5759 5752 5747 5741 5738 5735 5734 5734 5733 5733 5732 5731 5731 5731 5730 5729 5729 5728 5727 5726 5725 5724 5723 5721 5720 5719 5719 5718 5718 5717 5717 5716 5716
5779 5769 5763 5783 5793 5796 5785 5767 5785 5791 5787 5777 5773 5769 5763 5758 5754 5750 5746 5741 5737 5734 5732 5732 5732 5731 5731 5729 5729 5728 5728 5727 5727 5726 5726 5725 5724 5723 5721 5720 5718 5718 5717 5716 5716 5715 5714 5713 5713
5754 5747 5752 5769 5788 5788 5779 5767 5781 5786 5781 5772 5769 5765 5759 5753 5749 5747 5744 5740 5736 5733 5731 5729 5729 5729 5729 5727 5726 5726 5726 5725 5725 5724 5724 5723 5722 5722 5720 5719 5717 5717 5715 5715 5714 5712 5712 5710 5710
5743 5745 5749 5756 5777 5780 5770 5767 5776 5779 5776 5769 5765 5760 5755 5751 5749 5746 5741 5738 5735 5733 5730 5728 5728 5727 5726 5724 5723 5722 5722 5723 5723 5723 5723 5722 5721 5720 5719 5717 5716 5715 5714 5713 5712 5710 5709 5708 5708
5754 5749 5745 5760 5777 5771 5763 5763 5769 5773 5769 5764 5759 5756 5752 5749 5747 5744 5739 5737 5734 5731 5728 5727 5726 5725 5724 5722 5720 5719 5719 5720 5720 5721 5721 5721 5720 5719 5718 5716 5715 5714 5713 5712 5711 5709 5708 5706 5706
5752 5745 5747 5762 5774 5768 5759 5760 5767 5767 5764 5762 5758 5754 5751 5746 5743 5741 5737 5734 5733 5730 5728 5726 5725 5724 5724 5724 5722 5721 5719 5718 5719 5719 5718 5718 5718 5717 5717 5715 5714 5713 5712 5710 5710 5709 5706 5704 5704
5751 5746 5749 5753 5762 5762 5755 5751 5757 5762 5763 5762 5759 5755 5752 5748 5743 5740 5737 5734 5732 5730 5728 5727 5725 5724 5724 5723 5720 5718 5716 5715 5715 5715 5715 5716 5716 5715 5715 5714 5713 5712 5711 5710 5709 5708 5707 5703 5702
5744 5762 5760 5756 5743 5734 5741 5724 5746 5751 5752 5755 5754 5752 5750 5749 5745 5741 5738 5734 5732 5730 5729 5726 5724 5723 5723 5722 5720 5718 5716 5713 5714 5714 5714 5714 5714 5714 5714 5713 5712 5711 5710 5709 5708 5708 5707 5705 5702
5758 5765 5759 5751 5739 5729 5731 5723 5734 5746 5746 5750 5753 5753 5752 5750 5747 5743 5740 5737 5734 5731 5728 5726 5723 5722 5722 5721 5720 5719 5716 5715 5714 5713 5712 5712 5712 5712 5713 5712 5712 5711 5710 5709 5708 5707 5707 5706 5703
5768 5755 5744 5731 5723 5715 5726 5719 5725 5739 5749 5752 5755 5755 5754 5751 5748 5745 5742 5738 5734 5731 5728 5726 5723 5721 5721 5721 5720 5718 5716 5715 5713 5711 5710 5710 5710 5711 5711 5711 5711 5710 5709 5709 5708 5707 5706 5705 5704
5758 5732 5709 5709 5699 5706 5723 5718 5726 5753 5759 5758 5757 5757 5756 5753 5749 5745 5741 5738 5735 5731 5729 5726 5723 5721 5721 5720 5719 5719 5718 5717 5715 5713 5711 5710 5709 5710 5711 5711 5710 5710 5709 5708 5707 5706 5705 5704 5703
5747 5735 5708 5699 5696 5705 5718 5716 5741 5763 5765 5765 5763 5760 5758 5754 5751 5748 5744 5740 5737 5734 5731 5728 5725 5723 5722 5720 5719 5719 5718 5717 5716 5715 5714 5712 5712 5712 5712 5711 5710 5709 5709 5707 5706 5705 5704 5703 5702
5742 5732 5736 5711 5706 5701 5709 5724 5746 5764 5762 5761 5760 5759 5756 5755 5753 5750 5746 5742 5740 5737 5734 5731 5728 5725 5723 5722 5721 5719 5718 5717 5716 5716 5715 5714 5713 5713 5712 5710 5709 5708 5707 5706 5704 5703 5702 5701 5700
5756 5739 5718 5706 5694 5693 5708 5717 5729 5753 5756 5757 5757 5756 5756 5755 5753 5750 5747 5744 5741 5739 5736 5733 5730 5728 5725 5723 5721 5720 5719 5718 5718 5716 5715 5714 5713 5712 5711 5709 5708 5707 5706 5704 5702 5701 5700 5699 5698
5741 5733 5721 5706 5705 5695 5694 5715 5752 5756 5760 5758 5758 5758 5758 5755 5753 5751 5748 5746 5743 5740 5737 5733 5730 5728 5726 5724 5723 5721 5719 5718 5717 5716 5715 5715 5714 5712 5710 5708 5706 5705 5704 5703 5700 5699 5698 5696 5695
5746 5736 5721 5711 5705 5701 5698 5719 5764 5761 5761 5759 5759 5760 5759 5757 5755 5752 5750 5747 5743 5739 5737 5734 5732 5730 5728 5726 5724 5722 5720 5719 5717 5716 5716 5715 5714 5712 5710 5708 5706 5705 5703 5701 5699 5697 5696 5694 5693